Terug naar catalogus

STARLINK-1500

ActiefCommunicatieVLEO
NORAD 45744·PAYLOAD·🇺🇸 United States

Gelanceerd Jun 13, 2020 vanaf Cape Canaveral Space Force Station

Loading…

Volgende Passages (komende 24 uur)

TLE

VersSource: CelesTrak SupGP

Epoch: Sep 15, 2026, 01:52 UTC

1 45744C 20038Q   26258.07826389  .00018183  00000+0  39372-3 0  2588
2 45744  53.0350  18.0429 0002271 123.8519   2.4700 15.43850869    10

Volg STARLINK-1500 in realtime met AllMySat

Download on the App Store